Date_UTC,IAGA,MLT,MLAT,IGRF_DECL,SZA,N,E,Z
2015-08-15 08:00:00,GDH,5.67,75.25,-33.50,85.15,-13.6,13.9,14.9
2015-08-15 08:01:00,GDH,5.69,75.25,-33.50,85.07,-8.4,11.2,7.5
2015-08-15 08:02:00,GDH,5.71,75.25,-33.50,85.00,-0.9,9.9,2.8
2015-08-15 08:03:00,GDH,5.72,75.25,-33.50,84.92,2.8,12.2,4.0
2015-08-15 08:04:00,GDH,5.74,75.25,-33.50,84.84,4.5,14.9,6.5
2015-08-15 08:05:00,GDH,5.76,75.25,-33.50,84.76,2.3,15.9,9.5
2015-08-15 08:06:00,GDH,5.77,75.25,-33.50,84.68,-2.0,15.1,13.1
2015-08-15 08:07:00,GDH,5.79,75.25,-33.50,84.60,-2.8,14.2,18.1
2015-08-15 08:08:00,GDH,5.81,75.25,-33.50,84.52,-0.9,12.7,18.3
2015-08-15 08:09:00,GDH,5.82,75.25,-33.50,84.44,1.0,14.2,19.0
2015-08-15 08:10:00,GDH,5.84,75.25,-33.50,84.36,1.3,13.7,18.3
2015-08-15 08:11:00,GDH,5.86,75.25,-33.50,84.28,-0.0,14.6,19.5
2015-08-15 08:12:00,GDH,5.88,75.25,-33.50,84.20,-3.2,15.5,19.8
2015-08-15 08:13:00,GDH,5.89,75.25,-33.50,84.12,-5.4,16.7,21.4
2015-08-15 08:14:00,GDH,5.91,75.25,-33.50,84.04,-5.7,13.4,22.7
2015-08-15 08:15:00,GDH,5.93,75.25,-33.50,83.96,-7.6,11.8,24.8
2015-08-15 08:16:00,GDH,5.94,75.25,-33.50,83.88,-13.5,11.9,25.1
2015-08-15 08:17:00,GDH,5.96,75.25,-33.50,83.80,-15.9,14.1,25.2
2015-08-15 08:18:00,GDH,5.98,75.25,-33.50,83.72,-15.8,12.0,22.2
2015-08-15 08:19:00,GDH,5.99,75.25,-33.50,83.64,-16.4,9.5,18.6
2015-08-15 08:20:00,GDH,6.01,75.25,-33.50,83.56,-14.6,11.3,13.0
2015-08-15 08:21:00,GDH,6.03,75.25,-33.50,83.48,-13.1,14.9,6.2
2015-08-15 08:22:00,GDH,6.04,75.25,-33.50,83.39,-11.0,17.4,0.2
2015-08-15 08:23:00,GDH,6.06,75.25,-33.50,83.31,-9.3,19.2,-4.6
2015-08-15 08:24:00,GDH,6.08,75.25,-33.50,83.23,-7.1,19.8,-4.2
2015-08-15 08:25:00,GDH,6.09,75.25,-33.50,83.15,-5.4,19.3,-1.4
2015-08-15 08:26:00,GDH,6.11,75.25,-33.50,83.07,-7.5,19.4,-1.2
2015-08-15 08:27:00,GDH,6.13,75.25,-33.50,82.99,-8.0,20.8,-1.5
2015-08-15 08:28:00,GDH,6.14,75.25,-33.50,82.90,-9.7,21.8,-3.7
2015-08-15 08:29:00,GDH,6.16,75.25,-33.50,82.82,-9.4,22.5,-6.4
2015-08-15 08:30:00,GDH,6.18,75.25,-33.50,82.74,-53.5,40.3,-4.6
2015-08-15 08:31:00,GDH,6.19,75.25,-33.50,82.66,33.6,31.3,1.3
2015-08-15 08:32:00,GDH,6.21,75.25,-33.50,82.57,145.6,27.1,-68.7
2015-08-15 08:33:00,GDH,6.23,75.25,-33.50,82.49,185.9,27.4,-108.9
2015-08-15 08:34:00,GDH,6.24,75.25,-33.50,82.41,211.0,34.4,-104.4
2015-08-15 08:35:00,GDH,6.26,75.25,-33.50,82.32,192.5,41.1,-85.2
2015-08-15 08:36:00,GDH,6.28,75.25,-33.50,82.24,148.3,42.8,-47.9
2015-08-15 08:37:00,GDH,6.29,75.25,-33.50,82.16,94.4,27.4,-28.4
2015-08-15 08:38:00,GDH,6.31,75.25,-33.50,82.07,78.1,9.8,-20.5
2015-08-15 08:39:00,GDH,6.33,75.25,-33.50,81.99,64.8,7.2,-20.5
2015-08-15 08:40:00,GDH,6.34,75.25,-33.50,81.91,69.9,4.7,-22.5
2015-08-15 08:41:00,GDH,6.36,75.25,-33.50,81.82,82.0,-3.5,-22.0
2015-08-15 08:42:00,GDH,6.38,75.25,-33.50,81.74,67.6,5.2,6.3
2015-08-15 08:43:00,GDH,6.39,75.25,-33.50,81.66,60.4,-0.9,24.7
2015-08-15 08:44:00,GDH,6.41,75.25,-33.50,81.57,54.7,-13.3,29.7
2015-08-15 08:45:00,GDH,6.43,75.25,-33.50,81.49,67.3,-12.5,40.2
2015-08-15 08:46:00,GDH,6.44,75.25,-33.50,81.40,56.3,5.9,90.8
2015-08-15 08:47:00,GDH,6.46,75.25,-33.50,81.32,33.4,10.0,117.5
2015-08-15 08:48:00,GDH,6.48,75.25,-33.50,81.23,31.0,22.0,150.4
2015-08-15 08:49:00,GDH,6.49,75.25,-33.50,81.15,14.9,25.5,165.5
2015-08-15 08:50:00,GDH,6.51,75.25,-33.50,81.06,6.2,24.3,180.5
2015-08-15 08:51:00,GDH,6.53,75.25,-33.50,80.98,6.6,31.9,184.5
2015-08-15 08:52:00,GDH,6.54,75.25,-33.50,80.89,-13.0,38.8,193.3
2015-08-15 08:53:00,GDH,6.56,75.25,-33.50,80.81,-9.9,34.1,205.4
2015-08-15 08:54:00,GDH,6.58,75.25,-33.50,80.72,1.0,27.5,208.2
2015-08-15 08:55:00,GDH,6.59,75.25,-33.50,80.64,18.1,28.8,212.0
2015-08-15 08:56:00,GDH,6.61,75.25,-33.50,80.55,36.8,24.6,205.8
2015-08-15 08:57:00,GDH,6.63,75.25,-33.50,80.47,50.7,41.1,208.6
2015-08-15 08:58:00,GDH,6.64,75.25,-33.50,80.38,66.3,50.3,199.9
2015-08-15 08:59:00,GDH,6.66,75.25,-33.50,80.30,66.0,36.6,180.3
2015-08-15 09:00:00,GDH,6.68,75.25,-33.50,80.21,69.5,29.7,163.9
2015-08-15 09:01:00,GDH,6.70,75.25,-33.50,80.13,77.6,32.5,152.8
2015-08-15 09:02:00,GDH,6.71,75.25,-33.50,80.04,64.2,41.5,157.8
2015-08-15 09:03:00,GDH,6.73,75.25,-33.50,79.95,62.2,51.0,168.0
2015-08-15 09:04:00,GDH,6.75,75.25,-33.50,79.87,64.1,46.2,164.9
2015-08-15 09:05:00,GDH,6.76,75.25,-33.50,79.78,67.5,41.7,157.7
2015-08-15 09:06:00,GDH,6.78,75.25,-33.50,79.70,73.8,55.9,173.2
2015-08-15 09:07:00,GDH,6.80,75.25,-33.50,79.61,85.4,66.1,188.5
2015-08-15 09:08:00,GDH,6.81,75.25,-33.50,79.52,76.2,71.2,202.0
2015-08-15 09:09:00,GDH,6.83,75.25,-33.50,79.44,53.4,71.2,212.7
2015-08-15 09:10:00,GDH,6.85,75.25,-33.50,79.35,43.7,49.2,186.8
2015-08-15 09:11:00,GDH,6.86,75.25,-33.50,79.26,18.1,53.5,173.1
2015-08-15 09:12:00,GDH,6.88,75.25,-33.50,79.18,11.1,56.6,176.6
2015-08-15 09:13:00,GDH,6.90,75.25,-33.50,79.09,13.3,57.4,171.8
2015-08-15 09:14:00,GDH,6.91,75.25,-33.50,79.00,24.5,43.6,152.5
2015-08-15 09:15:00,GDH,6.93,75.25,-33.50,78.92,36.2,38.9,133.1
2015-08-15 09:16:00,GDH,6.95,75.25,-33.50,78.83,53.4,27.9,120.9
2015-08-15 09:17:00,GDH,6.96,75.25,-33.50,78.74,63.4,23.2,108.9
2015-08-15 09:18:00,GDH,6.98,75.25,-33.50,78.66,81.6,7.2,104.4
2015-08-15 09:19:00,GDH,7.00,75.25,-33.50,78.57,116.2,-8.8,97.4
2015-08-15 09:20:00,GDH,7.01,75.25,-33.50,78.48,151.1,0.8,112.3
2015-08-15 09:21:00,GDH,7.03,75.25,-33.50,78.39,153.4,28.3,134.6
2015-08-15 09:22:00,GDH,7.05,75.25,-33.50,78.31,159.4,40.4,153.2
2015-08-15 09:23:00,GDH,7.06,75.25,-33.50,78.22,166.7,48.8,151.7
2015-08-15 09:24:00,GDH,7.08,75.25,-33.50,78.13,167.7,53.7,150.0
2015-08-15 09:25:00,GDH,7.10,75.25,-33.50,78.04,173.6,72.0,153.1
2015-08-15 09:26:00,GDH,7.11,75.25,-33.50,77.96,151.9,90.5,143.0
2015-08-15 09:27:00,GDH,7.13,75.25,-33.50,77.87,135.5,92.6,129.9
2015-08-15 09:28:00,GDH,7.15,75.25,-33.50,77.78,123.2,100.9,119.3
2015-08-15 09:29:00,GDH,7.16,75.25,-33.50,77.69,92.5,97.5,107.0
2015-08-15 09:30:00,GDH,7.18,75.25,-33.50,77.61,59.2,94.2,104.9
2015-08-15 09:31:00,GDH,7.20,75.25,-33.50,77.52,14.6,88.0,106.5
2015-08-15 09:32:00,GDH,7.22,75.25,-33.50,77.43,23.2,75.4,111.5
2015-08-15 09:33:00,GDH,7.23,75.25,-33.50,77.34,21.8,78.7,102.3
2015-08-15 09:34:00,GDH,7.25,75.25,-33.50,77.26,-1.2,77.6,99.8
2015-08-15 09:35:00,GDH,7.27,75.25,-33.50,77.17,9.3,76.5,102.6
2015-08-15 09:36:00,GDH,7.28,75.25,-33.50,77.08,24.9,83.4,102.5
2015-08-15 09:37:00,GDH,7.30,75.25,-33.50,76.99,6.3,79.4,103.8
2015-08-15 09:38:00,GDH,7.32,75.25,-33.50,76.90,14.6,66.7,109.0
2015-08-15 09:39:00,GDH,7.33,75.25,-33.50,76.82,5.2,58.7,117.4
2015-08-15 09:40:00,GDH,7.35,75.25,-33.50,76.73,6.5,60.4,133.6
2015-08-15 09:41:00,GDH,7.37,75.25,-33.50,76.64,4.7,62.4,139.3
2015-08-15 09:42:00,GDH,7.38,75.25,-33.50,76.55,-9.6,62.5,144.7
2015-08-15 09:43:00,GDH,7.40,75.25,-33.50,76.46,-28.0,68.0,149.8
2015-08-15 09:44:00,GDH,7.42,75.25,-33.50,76.37,-37.4,69.9,142.1
2015-08-15 09:45:00,GDH,7.43,75.25,-33.50,76.29,-49.0,71.1,133.4
2015-08-15 09:46:00,GDH,7.45,75.25,-33.50,76.20,-33.0,67.9,121.5
2015-08-15 09:47:00,GDH,7.47,75.25,-33.50,76.11,-27.5,83.3,124.9
2015-08-15 09:48:00,GDH,7.48,75.25,-33.50,76.02,-20.1,86.9,131.7
2015-08-15 09:49:00,GDH,7.50,75.25,-33.50,75.93,-7.3,89.2,138.7
2015-08-15 09:50:00,GDH,7.52,75.25,-33.50,75.85,-1.6,90.7,150.2
2015-08-15 09:51:00,GDH,7.53,75.25,-33.50,75.76,18.0,92.2,149.5
2015-08-15 09:52:00,GDH,7.55,75.25,-33.50,75.67,38.4,101.0,147.9
2015-08-15 09:53:00,GDH,7.57,75.25,-33.50,75.58,42.7,112.4,152.1
2015-08-15 09:54:00,GDH,7.58,75.25,-33.50,75.49,49.3,114.4,151.4
2015-08-15 09:55:00,GDH,7.60,75.25,-33.50,75.40,60.0,109.6,152.2
2015-08-15 09:56:00,GDH,7.62,75.25,-33.50,75.32,48.0,114.4,154.4
2015-08-15 09:57:00,GDH,7.63,75.25,-33.50,75.23,37.6,124.6,158.4
2015-08-15 09:58:00,GDH,7.65,75.25,-33.50,75.14,18.2,139.2,160.0
2015-08-15 09:59:00,GDH,7.67,75.25,-33.50,75.05,4.7,137.9,155.0
2015-08-15 10:00:00,GDH,7.68,75.25,-33.50,74.96,-4.1,134.0,155.5
2015-08-15 10:01:00,GDH,7.70,75.25,-33.50,74.87,5.2,136.0,163.3
2015-08-15 10:02:00,GDH,7.72,75.25,-33.50,74.79,4.2,125.0,159.5
2015-08-15 10:03:00,GDH,7.73,75.25,-33.50,74.70,16.8,115.6,150.9
2015-08-15 10:04:00,GDH,7.75,75.25,-33.50,74.61,17.2,111.3,138.6
2015-08-15 10:05:00,GDH,7.77,75.25,-33.50,74.52,21.0,118.4,132.3
2015-08-15 10:06:00,GDH,7.78,75.25,-33.50,74.43,23.0,120.1,130.4
2015-08-15 10:07:00,GDH,7.80,75.25,-33.50,74.34,25.4,118.7,112.2
2015-08-15 10:08:00,GDH,7.82,75.25,-33.50,74.25,38.7,112.3,101.1
2015-08-15 10:09:00,GDH,7.83,75.25,-33.50,74.17,50.4,128.8,93.0
2015-08-15 10:10:00,GDH,7.85,75.25,-33.50,74.08,43.5,135.7,91.9
2015-08-15 10:11:00,GDH,7.87,75.25,-33.50,73.99,42.6,128.4,96.0
2015-08-15 10:12:00,GDH,7.88,75.25,-33.50,73.90,57.4,125.3,98.6
2015-08-15 10:13:00,GDH,7.90,75.25,-33.50,73.81,77.0,128.8,97.2
2015-08-15 10:14:00,GDH,7.92,75.25,-33.50,73.73,99.5,134.9,97.8
2015-08-15 10:15:00,GDH,7.93,75.25,-33.50,73.64,105.5,137.7,91.5
2015-08-15 10:16:00,GDH,7.95,75.25,-33.50,73.55,109.1,121.5,77.1
2015-08-15 10:17:00,GDH,7.97,75.25,-33.50,73.46,115.1,120.1,70.5
2015-08-15 10:18:00,GDH,7.98,75.25,-33.50,73.37,100.6,115.2,71.5
2015-08-15 10:19:00,GDH,8.00,75.25,-33.50,73.28,91.6,105.4,71.2
2015-08-15 10:20:00,GDH,8.02,75.25,-33.50,73.20,77.5,103.1,73.1
2015-08-15 10:21:00,GDH,8.03,75.25,-33.50,73.11,72.8,105.9,77.4
2015-08-15 10:22:00,GDH,8.05,75.25,-33.50,73.02,66.9,119.0,83.7
2015-08-15 10:23:00,GDH,8.07,75.25,-33.50,72.93,61.3,131.4,89.7
2015-08-15 10:24:00,GDH,8.08,75.25,-33.50,72.84,57.1,127.5,85.1
2015-08-15 10:25:00,GDH,8.10,75.25,-33.50,72.76,59.6,122.5,77.4
2015-08-15 10:26:00,GDH,8.12,75.25,-33.50,72.67,71.4,117.2,65.0
2015-08-15 10:27:00,GDH,8.13,75.25,-33.50,72.58,87.6,115.3,54.9
2015-08-15 10:28:00,GDH,8.15,75.25,-33.50,72.49,108.2,115.1,42.3
2015-08-15 10:29:00,GDH,8.17,75.25,-33.50,72.40,119.0,122.5,47.3
2015-08-15 10:30:00,GDH,8.18,75.25,-33.50,72.32,119.3,139.0,65.3
2015-08-15 10:31:00,GDH,8.20,75.25,-33.50,72.23,114.3,144.9,77.8
2015-08-15 10:32:00,GDH,8.22,75.25,-33.50,72.14,109.1,148.8,85.0
2015-08-15 10:33:00,GDH,8.23,75.25,-33.50,72.05,98.8,148.2,83.0
2015-08-15 10:34:00,GDH,8.25,75.25,-33.50,71.97,98.5,148.7,80.1
2015-08-15 10:35:00,GDH,8.27,75.25,-33.50,71.88,97.5,143.9,69.5
2015-08-15 10:36:00,GDH,8.28,75.25,-33.50,71.79,93.8,138.5,64.4
2015-08-15 10:37:00,GDH,8.30,75.25,-33.50,71.70,95.3,135.7,54.4
2015-08-15 10:38:00,GDH,8.32,75.25,-33.50,71.62,93.4,124.7,40.9
2015-08-15 10:39:00,GDH,8.33,75.25,-33.50,71.53,110.1,123.3,36.6
2015-08-15 10:40:00,GDH,8.35,75.25,-33.50,71.44,132.6,124.4,26.2
2015-08-15 10:41:00,GDH,8.36,75.25,-33.50,71.35,150.5,122.2,14.2
2015-08-15 10:42:00,GDH,8.38,75.25,-33.50,71.27,170.2,125.0,8.8
2015-08-15 10:43:00,GDH,8.40,75.25,-33.50,71.18,180.5,128.7,0.5
2015-08-15 10:44:00,GDH,8.41,75.25,-33.50,71.09,182.4,117.5,-17.2
2015-08-15 10:45:00,GDH,8.43,75.25,-33.50,71.01,194.3,113.7,-5.9
2015-08-15 10:46:00,GDH,8.45,75.25,-33.50,70.92,210.0,130.7,4.1
2015-08-15 10:47:00,GDH,8.46,75.25,-33.50,70.83,217.9,136.5,6.7
2015-08-15 10:48:00,GDH,8.48,75.25,-33.50,70.75,222.4,133.5,6.5
2015-08-15 10:49:00,GDH,8.50,75.25,-33.50,70.66,211.9,125.4,9.5
2015-08-15 10:50:00,GDH,8.51,75.25,-33.50,70.57,186.1,121.6,16.3
2015-08-15 10:51:00,GDH,8.53,75.25,-33.50,70.49,168.7,125.6,25.6
2015-08-15 10:52:00,GDH,8.55,75.25,-33.50,70.40,159.6,132.4,24.8
2015-08-15 10:53:00,GDH,8.56,75.25,-33.50,70.31,156.9,139.6,20.3
2015-08-15 10:54:00,GDH,8.58,75.25,-33.50,70.23,165.2,142.7,11.3
2015-08-15 10:55:00,GDH,8.59,75.25,-33.50,70.14,169.5,141.1,0.9
2015-08-15 10:56:00,GDH,8.61,75.25,-33.50,70.06,181.9,145.0,-0.2
2015-08-15 10:57:00,GDH,8.63,75.25,-33.50,69.97,193.6,145.8,-6.9
2015-08-15 10:58:00,GDH,8.64,75.25,-33.50,69.88,185.1,139.0,-18.4
2015-08-15 10:59:00,GDH,8.66,75.25,-33.50,69.80,177.1,142.6,-19.1
2015-08-15 11:00:00,GDH,8.68,75.25,-33.50,69.71,170.1,146.4,-20.3
2015-08-15 11:01:00,GDH,8.69,75.25,-33.50,69.63,166.8,151.4,-24.2
2015-08-15 11:02:00,GDH,8.71,75.25,-33.50,69.54,158.1,161.7,-26.0
2015-08-15 11:03:00,GDH,8.72,75.25,-33.50,69.46,160.5,165.3,-26.2
2015-08-15 11:04:00,GDH,8.74,75.25,-33.50,69.37,167.8,169.4,-30.8
2015-08-15 11:05:00,GDH,8.76,75.25,-33.50,69.28,173.0,174.6,-38.5
2015-08-15 11:06:00,GDH,8.77,75.25,-33.50,69.20,186.3,177.3,-39.7
2015-08-15 11:07:00,GDH,8.79,75.25,-33.50,69.11,189.3,165.3,-50.2
2015-08-15 11:08:00,GDH,8.81,75.25,-33.50,69.03,186.7,150.0,-58.3
2015-08-15 11:09:00,GDH,8.82,75.25,-33.50,68.94,189.2,137.4,-65.8
2015-08-15 11:10:00,GDH,8.84,75.25,-33.50,68.86,190.5,128.0,-70.4
2015-08-15 11:11:00,GDH,8.85,75.25,-33.50,68.77,196.8,118.3,-72.6
2015-08-15 11:12:00,GDH,8.87,75.25,-33.50,68.69,201.9,115.2,-69.9
2015-08-15 11:13:00,GDH,8.89,75.25,-33.50,68.61,201.8,114.5,-64.8
2015-08-15 11:14:00,GDH,8.90,75.25,-33.50,68.52,200.9,112.9,-53.9
2015-08-15 11:15:00,GDH,8.92,75.25,-33.50,68.44,198.8,122.8,-33.0
2015-08-15 11:16:00,GDH,8.93,75.25,-33.50,68.35,219.8,113.6,-17.5
2015-08-15 11:17:00,GDH,8.95,75.25,-33.50,68.27,223.1,108.6,-1.8
2015-08-15 11:18:00,GDH,8.97,75.25,-33.50,68.19,206.5,102.8,18.5
2015-08-15 11:19:00,GDH,8.98,75.25,-33.50,68.10,187.8,110.1,45.4
2015-08-15 11:20:00,GDH,9.00,75.25,-33.50,68.02,169.6,125.5,69.5
2015-08-15 11:21:00,GDH,9.02,75.25,-33.50,67.93,150.6,135.2,86.0
2015-08-15 11:22:00,GDH,9.03,75.25,-33.50,67.85,131.3,130.6,93.1
2015-08-15 11:23:00,GDH,9.05,75.25,-33.50,67.77,115.5,128.3,103.4
2015-08-15 11:24:00,GDH,9.06,75.25,-33.50,67.68,106.2,129.0,113.0
2015-08-15 11:25:00,GDH,9.08,75.25,-33.50,67.60,95.0,131.5,121.5
2015-08-15 11:26:00,GDH,9.09,75.25,-33.50,67.52,84.5,134.7,131.5
2015-08-15 11:27:00,GDH,9.11,75.25,-33.50,67.44,75.6,137.1,144.1
2015-08-15 11:28:00,GDH,9.13,75.25,-33.50,67.35,62.4,139.4,159.5
2015-08-15 11:29:00,GDH,9.14,75.25,-33.50,67.27,36.9,139.9,174.2
2015-08-15 11:30:00,GDH,9.16,75.25,-33.50,67.19,13.6,136.5,186.2
2015-08-15 11:31:00,GDH,9.17,75.25,-33.50,67.11,-3.8,137.1,194.6
2015-08-15 11:32:00,GDH,9.19,75.25,-33.50,67.02,-19.9,139.3,196.9
2015-08-15 11:33:00,GDH,9.21,75.25,-33.50,66.94,-40.0,132.6,198.4
2015-08-15 11:34:00,GDH,9.22,75.25,-33.50,66.86,-49.9,136.3,201.7
2015-08-15 11:35:00,GDH,9.24,75.25,-33.50,66.78,-71.1,137.1,208.3
2015-08-15 11:36:00,GDH,9.25,75.25,-33.50,66.70,-82.2,142.0,216.6
2015-08-15 11:37:00,GDH,9.27,75.25,-33.50,66.62,-95.6,150.1,221.1
2015-08-15 11:38:00,GDH,9.28,75.25,-33.50,66.54,-110.5,157.5,229.2
2015-08-15 11:39:00,GDH,9.30,75.25,-33.50,66.45,-121.7,153.1,222.3
2015-08-15 11:40:00,GDH,9.32,75.25,-33.50,66.37,-142.5,158.3,220.3
2015-08-15 11:41:00,GDH,9.33,75.25,-33.50,66.29,-155.1,168.3,231.9
2015-08-15 11:42:00,GDH,9.35,75.25,-33.50,66.21,-152.4,183.1,237.0
2015-08-15 11:43:00,GDH,9.36,75.25,-33.50,66.13,-158.8,186.0,227.5
2015-08-15 11:44:00,GDH,9.38,75.25,-33.50,66.05,-170.6,188.4,220.2
2015-08-15 11:45:00,GDH,9.39,75.25,-33.50,65.97,-172.8,192.4,216.6
2015-08-15 11:46:00,GDH,9.41,75.25,-33.50,65.89,-169.1,200.8,213.6
2015-08-15 11:47:00,GDH,9.43,75.25,-33.50,65.81,-158.4,212.3,212.6
2015-08-15 11:48:00,GDH,9.44,75.25,-33.50,65.73,-145.8,228.6,209.9
2015-08-15 11:49:00,GDH,9.46,75.25,-33.50,65.65,-138.1,245.3,210.4
2015-08-15 11:50:00,GDH,9.47,75.25,-33.50,65.57,-139.1,250.6,198.0
2015-08-15 11:51:00,GDH,9.49,75.25,-33.50,65.50,-137.1,253.8,187.7
2015-08-15 11:52:00,GDH,9.50,75.25,-33.50,65.42,-138.3,245.1,171.3
2015-08-15 11:53:00,GDH,9.52,75.25,-33.50,65.34,-131.8,251.6,169.0
2015-08-15 11:54:00,GDH,9.53,75.25,-33.50,65.26,-127.5,253.8,165.9
2015-08-15 11:55:00,GDH,9.55,75.25,-33.50,65.18,-121.3,252.5,161.2
2015-08-15 11:56:00,GDH,9.57,75.25,-33.50,65.10,-110.4,253.6,156.9
2015-08-15 11:57:00,GDH,9.58,75.25,-33.50,65.03,-103.1,251.0,149.1
2015-08-15 11:58:00,GDH,9.60,75.25,-33.50,64.95,-96.0,246.2,140.2
2015-08-15 11:59:00,GDH,9.61,75.25,-33.50,64.87,-93.6,244.6,136.1
2015-08-15 12:00:00,GDH,9.63,75.25,-33.50,64.79,-85.6,244.9,135.4
2015-08-15 12:01:00,GDH,9.64,75.25,-33.50,64.72,-79.0,245.4,132.5
2015-08-15 12:02:00,GDH,9.66,75.25,-33.50,64.64,-78.5,240.6,126.2
2015-08-15 12:03:00,GDH,9.67,75.25,-33.50,64.56,-72.6,232.9,121.5
2015-08-15 12:04:00,GDH,9.69,75.25,-33.50,64.49,-64.2,230.3,113.4
2015-08-15 12:05:00,GDH,9.70,75.25,-33.50,64.41,-62.8,224.5,106.3
2015-08-15 12:06:00,GDH,9.72,75.25,-33.50,64.33,-58.8,213.1,93.9
2015-08-15 12:07:00,GDH,9.73,75.25,-33.50,64.26,-53.6,211.6,87.1
2015-08-15 12:08:00,GDH,9.75,75.25,-33.50,64.18,-38.8,214.6,82.6
2015-08-15 12:09:00,GDH,9.77,75.25,-33.50,64.11,-14.9,221.4,82.6
2015-08-15 12:10:00,GDH,9.78,75.25,-33.50,64.03,-22.2,195.0,61.0
2015-08-15 12:11:00,GDH,9.80,75.25,-33.50,63.95,-40.4,177.8,64.9
2015-08-15 12:12:00,GDH,9.81,75.25,-33.50,63.88,-29.8,167.2,67.4
2015-08-15 12:13:00,GDH,9.83,75.25,-33.50,63.80,-15.4,165.3,62.8
2015-08-15 12:14:00,GDH,9.84,75.25,-33.50,63.73,-1.5,160.5,51.7
2015-08-15 12:15:00,GDH,9.86,75.25,-33.50,63.66,11.8,163.7,43.5
2015-08-15 12:16:00,GDH,9.87,75.25,-33.50,63.58,14.7,170.3,38.2
2015-08-15 12:17:00,GDH,9.89,75.25,-33.50,63.51,18.9,175.7,39.8
2015-08-15 12:18:00,GDH,9.90,75.25,-33.50,63.43,33.6,178.3,42.8
2015-08-15 12:19:00,GDH,9.92,75.25,-33.50,63.36,44.2,185.5,40.9
2015-08-15 12:20:00,GDH,9.93,75.25,-33.50,63.29,48.3,183.1,24.7
2015-08-15 12:21:00,GDH,9.95,75.25,-33.50,63.21,55.3,180.2,9.0
2015-08-15 12:22:00,GDH,9.96,75.25,-33.50,63.14,65.8,178.8,-11.7
2015-08-15 12:23:00,GDH,9.98,75.25,-33.50,63.07,76.4,172.5,-33.7
2015-08-15 12:24:00,GDH,9.99,75.25,-33.50,63.00,83.5,163.5,-53.0
2015-08-15 12:25:00,GDH,10.01,75.25,-33.50,62.92,94.0,158.8,-65.7
2015-08-15 12:26:00,GDH,10.02,75.25,-33.50,62.85,120.9,172.6,-54.2
2015-08-15 12:27:00,GDH,10.04,75.25,-33.50,62.78,136.8,191.4,-36.7
2015-08-15 12:28:00,GDH,10.05,75.25,-33.50,62.71,141.6,206.4,-1.0
2015-08-15 12:29:00,GDH,10.07,75.25,-33.50,62.64,123.5,188.5,30.0
2015-08-15 12:30:00,GDH,10.08,75.25,-33.50,62.57,91.2,160.9,58.2
2015-08-15 12:31:00,GDH,10.10,75.25,-33.50,62.50,68.4,131.8,86.2
2015-08-15 12:32:00,GDH,10.11,75.25,-33.50,62.43,69.4,125.4,115.9
2015-08-15 12:33:00,GDH,10.13,75.25,-33.50,62.36,65.6,122.3,144.5
2015-08-15 12:34:00,GDH,10.14,75.25,-33.50,62.29,42.3,114.8,171.0
2015-08-15 12:35:00,GDH,10.16,75.25,-33.50,62.22,19.1,128.2,207.4
2015-08-15 12:36:00,GDH,10.17,75.25,-33.50,62.15,-3.1,135.5,222.5
2015-08-15 12:37:00,GDH,10.19,75.25,-33.50,62.08,-19.6,132.7,225.5
2015-08-15 12:38:00,GDH,10.20,75.25,-33.50,62.01,-30.1,140.9,227.1
2015-08-15 12:39:00,GDH,10.22,75.25,-33.50,61.94,-38.6,148.7,234.8
2015-08-15 12:40:00,GDH,10.23,75.25,-33.50,61.87,-53.7,139.8,226.0
2015-08-15 12:41:00,GDH,10.25,75.25,-33.50,61.80,-69.3,149.0,226.7
2015-08-15 12:42:00,GDH,10.26,75.25,-33.50,61.74,-79.3,149.2,229.8
2015-08-15 12:43:00,GDH,10.28,75.25,-33.50,61.67,-93.2,150.3,228.1
2015-08-15 12:44:00,GDH,10.29,75.25,-33.50,61.60,-99.1,136.8,208.8
2015-08-15 12:45:00,GDH,10.30,75.25,-33.50,61.53,-103.4,135.9,184.8
2015-08-15 12:46:00,GDH,10.32,75.25,-33.50,61.47,-104.1,145.0,174.4
2015-08-15 12:47:00,GDH,10.33,75.25,-33.50,61.40,-97.8,150.7,166.7
2015-08-15 12:48:00,GDH,10.35,75.25,-33.50,61.33,-90.8,152.9,155.2
2015-08-15 12:49:00,GDH,10.36,75.25,-33.50,61.27,-73.7,153.9,146.2
2015-08-15 12:50:00,GDH,10.38,75.25,-33.50,61.20,-63.4,151.5,134.8
2015-08-15 12:51:00,GDH,10.39,75.25,-33.50,61.14,-58.5,143.9,117.7
2015-08-15 12:52:00,GDH,10.41,75.25,-33.50,61.07,-53.6,146.6,98.4
2015-08-15 12:53:00,GDH,10.42,75.25,-33.50,61.01,-50.9,136.9,58.5
2015-08-15 12:54:00,GDH,10.44,75.25,-33.50,60.94,-50.0,114.0,13.5
2015-08-15 12:55:00,GDH,10.45,75.25,-33.50,60.88,-31.4,100.0,-6.5
2015-08-15 12:56:00,GDH,10.47,75.25,-33.50,60.81,-3.7,113.5,-13.0
2015-08-15 12:57:00,GDH,10.48,75.25,-33.50,60.75,13.5,122.3,-43.9
2015-08-15 12:58:00,GDH,10.50,75.25,-33.50,60.69,30.7,121.6,-78.5
2015-08-15 12:59:00,GDH,10.51,75.25,-33.50,60.62,55.1,119.2,-102.0
2015-08-15 13:00:00,GDH,10.53,75.25,-33.50,60.56,80.0,122.0,-115.0
